Location: Allentsteig
(48.6833°N, 15.3167°E)
Time: 17:32:17
(UTC+00:00)

Lacrosse 5 rocket - Pass Details

Date: 18 September 2020
Orbit: 460 x 636 km, 57.0° (Epoch: 29 October)

Event Time Altitude Azimuth Distance (km) Brightness Sun altitude
Rises 21:27:41 0° 303° (WNW) 2,858 5.7 -36.6°
Reaches altitude 10° 21:30:01 10° 310° (NW) 1,975 4.8 -36.8°
Enters shadow 21:30:46 14° 314° (NW) 1,704 4.4 -36.9°
